{"data":{"norad_id":53505,"intl_designator":"2022-099AS","name":"STARLINK-4446","alt_names":[],"object_type":"PAYLOAD","status":"ACTIVE","operator":null,"country":"US","launch_date":"2022-08-12","launch_site_code":"AFWTR","launch_vehicle":null,"mission":null,"orbit_class":"UNKNOWN","rcs_meters":null,"size_class":null,"mass_kg":null,"dimensions":null,"purposes":["comms"],"wikipedia_slug":null,"has_3d_model":false,"image_url":null,"decayed_at":null,"tle_current":{"epoch":"2026-05-24T21:24:09.468000Z","epoch_age_seconds":95134,"freshness":"FRESH","line1":"1 53505U 22099AS  26144.89177625  .00068576  00000+0  47225-3 0  9996","line2":"2 53505  97.6046 273.6116 0002037 257.4334 102.6702 15.74423785207988","mean_motion":15.74423785,"eccentricity":0.0002037,"inclination_deg":97.6046,"raan_deg":273.6116,"arg_perigee_deg":257.4334,"mean_anomaly_deg":102.6702,"bstar":0.00047225,"rev_number":20798,"period_min":91.462032885892,"perigee_km":344.90160620447,"apogee_km":347.64113017367,"semimajor_km":6724.4083681891,"source":"CELESTRAK","updated_at":"2026-05-25T13:38:17.438013Z"}}}